TimePDT,TemperatureF,Dew PointF,Humidity,Sea Level PressureIn,VisibilityMPH,Wind Direction,Wind SpeedMPH,Gust SpeedMPH,PrecipitationIn,Events,Conditions,WindDirDegrees,DateUTC
12:08 AM,37.4,37.4,100,29.91,0.8,Variable,4.6,-,N/A,,Overcast,0,2013-09-25 07:08:00
12:19 AM,37.4,37.4,100,29.91,1.2,Variable,5.8,-,N/A,,Overcast,0,2013-09-25 07:19:00
12:39 AM,37.4,37.4,100,29.91,0.8,Variable,4.6,-,N/A,,Overcast,0,2013-09-25 07:39:00
12:56 AM,37.0,37.0,100,29.91,0.8,Variable,4.6,-,N/A,,Overcast,0,2013-09-25 07:56:00
1:01 AM,37.4,37.4,100,29.91,1.5,Variable,4.6,-,N/A,,Overcast,0,2013-09-25 08:01:00
1:08 AM,37.4,37.4,100,29.91,0.8,Variable,3.5,-,N/A,,Overcast,0,2013-09-25 08:08:00
1:52 AM,37.4,37.4,100,29.91,0.8,Calm,Calm,-,N/A,,Overcast,0,2013-09-25 08:52:00
1:56 AM,37.9,37.9,100,29.91,0.8,Variable,3.5,-,N/A,,Overcast,0,2013-09-25 08:56:00
2:06 AM,37.4,37.4,100,29.91,0.5,Variable,3.5,-,N/A,Fog,Fog,0,2013-09-25 09:06:00
2:16 AM,37.4,37.4,100,29.90,0.2,WSW,3.5,-,N/A,Fog,Fog,240,2013-09-25 09:16:00
2:21 AM,37.4,37.4,100,29.90,0.5,Variable,4.6,-,N/A,Fog,Fog,0,2013-09-25 09:21:00
2:29 AM,37.4,37.4,100,29.90,3.0,Calm,Calm,-,N/A,,Overcast,0,2013-09-25 09:29:00
2:34 AM,37.4,37.4,100,29.90,2.5,Variable,4.6,-,N/A,,Overcast,0,2013-09-25 09:34:00
2:42 AM,37.4,37.4,100,29.90,1.2,Variable,3.5,-,N/A,,Overcast,0,2013-09-25 09:42:00
2:49 AM,37.4,37.4,100,29.90,0.5,Variable,3.5,-,N/A,Fog,Fog,0,2013-09-25 09:49:00
2:56 AM,37.0,37.0,100,29.91,0.5,Variable,3.5,-,N/A,Fog,Fog,0,2013-09-25 09:56:00
3:30 AM,37.4,37.4,100,29.90,1.2,Variable,3.5,-,N/A,,Overcast,0,2013-09-25 10:30:00
3:39 AM,37.4,37.4,100,29.90,0.8,NW,5.8,-,N/A,,Overcast,320,2013-09-25 10:39:00
3:56 AM,37.0,37.0,100,29.91,0.5,Variable,3.5,-,N/A,Fog,Fog,0,2013-09-25 10:56:00
4:14 AM,37.4,35.6,93,29.90,1.5,Variable,3.5,-,N/A,,Overcast,0,2013-09-25 11:14:00
4:17 AM,37.4,35.6,93,29.90,3.0,Variable,5.8,-,N/A,,Overcast,0,2013-09-25 11:17:00
4:21 AM,35.6,35.6,100,29.90,2.5,NW,4.6,-,N/A,,Overcast,320,2013-09-25 11:21:00
4:29 AM,37.4,37.4,100,29.90,1.2,Variable,3.5,-,N/A,,Overcast,0,2013-09-25 11:29:00
4:37 AM,37.4,37.4,100,29.90,1.2,Calm,Calm,-,N/A,,Overcast,0,2013-09-25 11:37:00
4:47 AM,37.4,37.4,100,29.90,0.5,Variable,3.5,-,0.00,Fog,Fog,0,2013-09-25 11:47:00
4:56 AM,37.0,37.0,100,29.91,0.5,Calm,Calm,-,0.01,Fog,Fog,0,2013-09-25 11:56:00
5:56 AM,37.0,37.0,100,29.92,0.2,Calm,Calm,-,0.00,Fog,Fog,0,2013-09-25 12:56:00
6:13 AM,35.6,35.6,100,29.90,0.8,Variable,4.6,-,N/A,,Overcast,0,2013-09-25 13:13:00
6:20 AM,35.6,35.6,100,29.90,1.5,Variable,4.6,-,N/A,,Overcast,0,2013-09-25 13:20:00
6:22 AM,35.6,35.6,100,29.90,2.0,Variable,4.6,-,N/A,,Overcast,0,2013-09-25 13:22:00
6:25 AM,35.6,35.6,100,29.90,3.0,Variable,4.6,-,N/A,,Overcast,0,2013-09-25 13:25:00
6:31 AM,35.6,35.6,100,29.90,2.0,NW,4.6,-,N/A,,Overcast,310,2013-09-25 13:31:00
6:35 AM,35.6,35.6,100,29.90,1.2,Variable,3.5,-,N/A,,Overcast,0,2013-09-25 13:35:00
6:47 AM,35.6,35.6,100,29.91,0.5,Calm,Calm,-,N/A,Fog,Fog,0,2013-09-25 13:47:00
6:56 AM,37.0,37.0,100,29.93,0.5,Variable,3.5,-,N/A,Fog,Fog,0,2013-09-25 13:56:00
7:08 AM,35.6,35.6,100,29.91,0.5,Variable,3.5,-,N/A,Fog,Fog,0,2013-09-25 14:08:00
7:26 AM,35.6,35.6,100,29.91,0.5,NW,3.5,-,N/A,Fog,Fog,310,2013-09-25 14:26:00
7:40 AM,35.6,35.6,100,29.91,0.2,Calm,Calm,-,N/A,Fog,Fog,0,2013-09-25 14:40:00
7:56 AM,37.0,37.0,100,29.94,0.2,Calm,Calm,-,N/A,Fog,Fog,0,2013-09-25 14:56:00
8:13 AM,37.4,37.4,100,29.92,0.2,Calm,Calm,-,N/A,Fog,Fog,0,2013-09-25 15:13:00
8:29 AM,37.4,37.4,100,29.92,0.2,Calm,Calm,-,N/A,Fog,Fog,0,2013-09-25 15:29:00
8:56 AM,37.9,37.9,100,29.95,0.2,Calm,Calm,-,N/A,Fog,Fog,0,2013-09-25 15:56:00
9:56 AM,39.0,39.0,100,29.96,0.2,Calm,Calm,-,0.00,Fog,Fog,0,2013-09-25 16:56:00
10:11 AM,39.2,39.2,100,29.94,0.5,Variable,3.5,-,0.01,Fog,Fog,0,2013-09-25 17:11:00
10:42 AM,39.2,39.2,100,29.93,1.5,Variable,3.5,-,0.01,,Overcast,0,2013-09-25 17:42:00
10:49 AM,39.2,39.2,100,29.94,3.0,Variable,3.5,-,0.01,,Overcast,0,2013-09-25 17:49:00
10:56 AM,39.9,39.0,97,29.96,1.8,Calm,Calm,-,0.01,,Mostly Cloudy,0,2013-09-25 17:56:00
11:02 AM,39.2,39.2,100,29.93,4.0,Calm,Calm,-,N/A,,Overcast,0,2013-09-25 18:02:00
11:05 AM,39.2,39.2,100,29.94,2.0,Calm,Calm,-,N/A,,Overcast,0,2013-09-25 18:05:00
11:08 AM,39.2,39.2,100,29.94,1.2,Calm,Calm,-,0.00,Rain,Light Rain,0,2013-09-25 18:08:00
11:11 AM,39.2,39.2,100,29.94,0.8,NNW,4.6,-,0.00,Rain,Light Rain,330,2013-09-25 18:11:00
11:27 AM,37.4,37.4,100,29.94,0.2,Variable,4.6,-,0.05,Fog-Rain,Light Rain,0,2013-09-25 18:27:00
11:38 AM,39.2,39.2,100,29.94,0.2,Variable,3.5,-,0.05,Fog-Rain,Light Rain,0,2013-09-25 18:38:00
11:56 AM,42.1,41.0,96,29.96,0.2,Calm,Calm,-,0.05,Fog,Fog,0,2013-09-25 18:56:00
12:21 PM,42.8,42.8,100,29.94,0.5,Calm,Calm,-,N/A,Fog,Fog,0,2013-09-25 19:21:00
12:30 PM,41.0,41.0,100,29.94,1.5,Calm,Calm,-,N/A,,Mostly Cloudy,0,2013-09-25 19:30:00
12:33 PM,41.0,41.0,100,29.94,3.0,Calm,Calm,-,N/A,,Mostly Cloudy,0,2013-09-25 19:33:00
12:47 PM,42.8,41.0,93,29.94,8.0,NNW,3.5,-,N/A,,Mostly Cloudy,340,2013-09-25 19:47:00
12:54 PM,41.0,39.2,93,29.94,1.5,Calm,Calm,-,0.00,Rain,Light Rain,0,2013-09-25 19:54:00
12:56 PM,42.1,41.0,96,29.96,0.8,Calm,Calm,-,0.00,Rain,Light Rain,0,2013-09-25 19:56:00
1:01 PM,42.8,42.8,100,29.94,0.5,Calm,Calm,-,0.00,Fog-Rain,Light Rain,0,2013-09-25 20:01:00
1:08 PM,41.0,41.0,100,29.94,0.2,Calm,Calm,-,0.00,Fog-Rain,Light Rain,0,2013-09-25 20:08:00
1:23 PM,39.2,39.2,100,29.93,0.2,Variable,3.5,-,0.00,Fog,Fog,0,2013-09-25 20:23:00
1:33 PM,42.8,42.8,100,29.94,0.2,Calm,Calm,-,0.00,Fog,Fog,0,2013-09-25 20:33:00
1:39 PM,42.8,42.8,100,29.94,1.2,Variable,3.5,-,0.00,,Mostly Cloudy,0,2013-09-25 20:39:00
1:41 PM,42.8,42.8,100,29.94,3.0,Variable,3.5,-,0.00,,Mostly Cloudy,0,2013-09-25 20:41:00
1:53 PM,42.8,42.8,100,29.94,10.0,Variable,3.5,-,0.00,,Mostly Cloudy,0,2013-09-25 20:53:00
1:56 PM,42.1,42.1,100,29.96,10.0,Variable,3.5,-,0.00,,Mostly Cloudy,0,2013-09-25 20:56:00
2:33 PM,41.0,39.2,93,29.94,2.5,Variable,3.5,-,0.00,Rain,Light Rain,0,2013-09-25 21:33:00
2:37 PM,39.2,39.2,100,29.94,1.2,Calm,Calm,-,0.01,Rain,Light Rain,0,2013-09-25 21:37:00
2:45 PM,42.8,41.0,93,29.94,0.5,Calm,Calm,-,0.01,Fog,Fog,0,2013-09-25 21:45:00
2:48 PM,42.8,42.8,100,29.94,1.0,Calm,Calm,-,0.01,,Overcast,0,2013-09-25 21:48:00
2:51 PM,42.8,42.8,100,29.94,2.0,Calm,Calm,-,0.01,,Mostly Cloudy,0,2013-09-25 21:51:00
2:56 PM,43.0,42.1,97,29.96,7.0,Calm,Calm,-,0.01,,Mostly Cloudy,0,2013-09-25 21:56:00
3:19 PM,41.0,41.0,100,29.94,1.0,Variable,5.8,-,0.00,Rain,Light Rain,0,2013-09-25 22:19:00
3:23 PM,39.2,39.2,100,29.94,0.2,North,5.8,-,0.02,Fog-Rain,Light Rain,360,2013-09-25 22:23:00
3:56 PM,42.1,41.0,96,29.96,0.2,Variable,5.8,-,0.04,Fog,Fog,0,2013-09-25 22:56:00
4:34 PM,42.8,42.8,100,29.96,0.5,Variable,3.5,-,N/A,Fog,Fog,0,2013-09-25 23:34:00
4:42 PM,42.8,42.8,100,29.96,0.5,Calm,Calm,-,N/A,Fog,Fog,0,2013-09-25 23:42:00
4:56 PM,42.1,42.1,100,29.98,0.5,Variable,4.6,-,N/A,Fog,Fog,0,2013-09-25 23:56:00
5:04 PM,41.0,41.0,100,29.96,0.2,Calm,Calm,-,0.00,Fog-Rain,Light Rain,0,2013-09-26 00:04:00
5:17 PM,41.0,41.0,100,29.96,0.2,Variable,4.6,-,0.00,Fog-Rain,Light Rain,0,2013-09-26 00:17:00
5:56 PM,39.0,39.0,100,30.00,0.2,Variable,3.5,-,0.00,Fog-Rain,Light Rain,0,2013-09-26 00:56:00
6:40 PM,39.2,39.2,100,29.97,0.2,Calm,Calm,-,0.00,Fog,Fog,0,2013-09-26 01:40:00
6:56 PM,39.0,39.0,100,30.01,0.2,Variable,3.5,-,0.00,Fog,Fog,0,2013-09-26 01:56:00
7:21 PM,37.4,37.4,100,29.98,0.5,Variable,4.6,-,N/A,Fog,Fog,0,2013-09-26 02:21:00
7:35 PM,37.4,37.4,100,29.98,0.2,Variable,4.6,-,N/A,Fog,Fog,0,2013-09-26 02:35:00
7:48 PM,37.4,37.4,100,29.99,0.5,Variable,3.5,-,N/A,Fog,Fog,0,2013-09-26 02:48:00
7:56 PM,37.9,37.9,100,30.02,0.2,Variable,3.5,-,N/A,Fog,Fog,0,2013-09-26 02:56:00
8:56 PM,39.0,39.0,100,30.03,0.2,Calm,Calm,-,N/A,Fog,Fog,0,2013-09-26 03:56:00
9:27 PM,39.2,39.2,100,30.01,0.2,Calm,Calm,-,0.03,Fog-Rain,Light Rain,0,2013-09-26 04:27:00
9:56 PM,37.9,37.9,100,30.04,0.2,Calm,Calm,-,0.05,Fog,Fog,0,2013-09-26 04:56:00
10:56 PM,39.0,39.0,100,30.04,0.2,Calm,Calm,-,N/A,Fog,Fog,0,2013-09-26 05:56:00
11:56 PM,39.0,39.0,100,30.04,0.5,Calm,Calm,-,N/A,Fog,Fog,0,2013-09-26 06:56:00